Погода в Песчанке

Украина / Винницкая область     48°12′20″N   28°53′20″E
темп.,
°C
ветер,
м/с
пор.,
м/с
влажн.,
%
обл.,
%
осадки,
мм/ч
давл.,
гПа
погр.,
м
21 апреля, ср
ср2100:00+6сз23815 0.0 101136
03:00+5зсз23845 0.0 101236
06:00+4з348845 0.0 101271
09:00+9з457361 0.0 1014464
12:00+12з565940 0.9 10141482
15:00+14зсз4547100 1.9 10132029
18:00+13з135184 0.4 10141010
21:00+10ююз356984 0.4 101694
22 апреля, чт
чт2200:00+8ююз35705 0.0 101674
03:00+7ююз34740 0.0 101764
06:00+6ююз34804 0.0 101749
09:00+11ююз4566100 0.0 1017294
12:00+15ююз56518 0.0 10171471
15:00+17ююз56415 0.0 10162173
18:00+16юз47465 0.0 10152138
21:00+12ю35605 0.0 101574
23 апреля, пт
пт2300:00+10ю367584 0.7 1015119
03:00+8ююз35864 1.7 101588
06:00+7сз489661 0.0 1016280
09:00+8с4482100 0.0 1017608
12:00+8ссз5479100 0.0 1017805
15:00+3сз5996100 2.2 1019461
18:00+7ссз477429 0.9 1017883
21:00+5з348171 0.9 101872
24 апреля, сб
сб2400:00+3зсз36810 0.0 1019115
03:00+2з498534 0.0 1019191
06:00+3з61188100 0.0 1019576
09:00+4зсз710685 0.0 1020956
12:00+7зсз8115498 0.1 10211864
15:00+8зсз81143100 0.5 10202455
18:00+8сз79465 0.0 10202248
21:00+4зсз37610 0.0 1022162
25 апреля, вс
вс2500:00+3з497163 0.0 1022226
03:00+1з37760 0.0 1022141
06:000з34780 0.0 102168
09:00+5з4558100 0.0 1021530
12:00+8зсз3546100 0.0 10211841
15:00+6сз5567100 0.1 10211071
18:00+8сз574883 0.0 10191815
21:00+5сз3661100 0.0 1020130